Location: ?????????
(53.2086°N, 54.0693°E)
Time: 08:38:57
(UTC+00:00)

Cosmos 1980 Rocket - Pass Details

Date: 08 December 2019
Orbit: 829 x 850 km, 71.0° (Epoch: 21 January)

Event Time Altitude Azimuth Distance (km) Brightness Sun altitude
Rises 12:39:37 0° 247° (WSW) 3,408 7.7 -4.9°
Reaches altitude 10° 12:42:21 10° 258° (WSW) 2,477 6.1 -5.2°
Maximum altitude 12:47:22 31° 320° (NW) 1,451 3.6 -5.9°
Drops below altitude 10° 12:52:26 10° 22° (NNE) 2,490 4.2 -6.5°
Enters shadow 12:54:13 - 30° (NNE) 3,086 4.6 -6.7°
